TimeEST,TemperatureF,Dew PointF,Humidity,Sea Level PressureIn,VisibilityMPH,Wind Direction,Wind SpeedMPH,Gust SpeedMPH,PrecipitationIn,Events,Conditions,WindDirDegrees,DateUTC
12:53 AM,59.0,48.9,69,29.96,10.0,South,3.5,-,N/A,,Overcast,190,2011-11-09 05:53:00
1:53 AM,57.9,48.9,72,29.95,10.0,Calm,Calm,-,N/A,,Overcast,0,2011-11-09 06:53:00
2:53 AM,57.9,48.9,72,29.94,10.0,South,4.6,-,N/A,,Overcast,180,2011-11-09 07:53:00
5:53 AM,54.0,51.1,90,29.90,7.0,South,3.5,-,0.02,Rain,Light Rain,180,2011-11-09 10:53:00
6:13 AM,53.6,51.8,94,29.90,6.0,Calm,Calm,-,0.02,Rain,Light Rain,0,2011-11-09 11:13:00
6:38 AM,53.6,51.8,94,29.88,6.0,South,3.5,-,0.06,Rain,Light Rain,180,2011-11-09 11:38:00
6:53 AM,54.0,51.1,90,29.88,7.0,South,4.6,-,0.08,Rain,Light Rain,190,2011-11-09 11:53:00
7:53 AM,54.0,51.1,90,29.84,10.0,SSE,4.6,-,0.02,,Overcast,150,2011-11-09 12:53:00
9:53 AM,55.9,52.0,87,29.77,7.0,SSE,9.2,-,0.01,Rain,Light Rain,150,2011-11-09 14:53:00
10:53 AM,55.0,52.0,89,29.76,1.8,South,9.2,18.4,0.10,Rain,Heavy Rain,180,2011-11-09 15:53:00
10:58 AM,55.4,53.6,94,29.76,1.2,South,6.9,-,0.04,Rain,Heavy Rain,180,2011-11-09 15:58:00
11:08 AM,55.4,53.6,94,29.74,1.2,South,12.7,19.6,0.13,Rain,Heavy Rain,170,2011-11-09 16:08:00
11:14 AM,55.4,53.6,94,29.74,2.0,South,9.2,-,0.15,Rain,Rain,170,2011-11-09 16:14:00
11:20 AM,55.4,53.6,94,29.73,2.5,SSE,12.7,-,0.17,Rain,Rain,160,2011-11-09 16:20:00
11:33 AM,55.4,53.6,94,29.73,3.0,South,13.8,19.6,0.21,Rain,Light Rain,170,2011-11-09 16:33:00
11:53 AM,55.9,53.1,90,29.71,10.0,South,15.0,32.2,0.21,Rain,Light Rain,180,2011-11-09 16:53:00
12:53 PM,57.9,54.0,87,29.66,10.0,South,13.8,24.2,0.01,,Overcast,180,2011-11-09 17:53:00
1:07 PM,57.2,55.4,94,29.66,10.0,South,12.7,23.0,N/A,,Overcast,190,2011-11-09 18:07:00
1:32 PM,60.8,55.4,82,29.64,10.0,South,13.8,23.0,N/A,,Overcast,190,2011-11-09 18:32:00
1:53 PM,60.1,55.0,83,29.62,10.0,South,12.7,25.3,N/A,,Overcast,190,2011-11-09 18:53:00
2:25 PM,62.6,53.6,72,29.60,10.0,SSW,16.1,33.4,N/A,,Mostly Cloudy,200,2011-11-09 19:25:00
2:37 PM,62.6,53.6,72,29.60,10.0,South,19.6,28.8,N/A,,Mostly Cloudy,180,2011-11-09 19:37:00
2:48 PM,62.6,53.6,72,29.59,10.0,South,19.6,26.5,N/A,,Mostly Cloudy,190,2011-11-09 19:48:00
2:53 PM,62.1,54.0,75,29.58,10.0,South,17.3,26.5,N/A,,Overcast,190,2011-11-09 19:53:00
3:53 PM,63.0,52.0,67,29.59,10.0,WSW,23.0,33.4,N/A,,Mostly Cloudy,240,2011-11-09 20:53:00
4:53 PM,57.0,44.1,62,29.62,10.0,WSW,21.9,36.8,N/A,,Scattered Clouds,240,2011-11-09 21:53:00
5:53 PM,50.0,39.9,68,29.66,10.0,SW,24.2,39.1,N/A,,Mostly Cloudy,230,2011-11-09 22:53:00
6:39 PM,46.4,37.4,71,29.70,10.0,WSW,26.5,35.7,N/A,,Overcast,240,2011-11-09 23:39:00
6:53 PM,46.0,35.1,66,29.71,10.0,WSW,20.7,32.2,N/A,,Overcast,240,2011-11-09 23:53:00
7:02 PM,44.6,35.6,71,29.71,10.0,WSW,25.3,32.2,N/A,,Overcast,240,2011-11-10 00:02:00
7:34 PM,44.6,35.6,71,29.71,10.0,WSW,27.6,39.1,N/A,,Overcast,240,2011-11-10 00:34:00
7:41 PM,42.8,33.8,70,29.72,10.0,WSW,26.5,40.3,N/A,,Mostly Cloudy,250,2011-11-10 00:41:00
7:53 PM,43.0,35.1,74,29.73,10.0,WSW,23.0,35.7,N/A,,Overcast,240,2011-11-10 00:53:00
8:13 PM,42.8,33.8,70,29.73,10.0,WSW,23.0,36.8,N/A,,Overcast,240,2011-11-10 01:13:00
8:35 PM,42.8,33.8,70,29.74,10.0,WSW,23.0,34.5,N/A,,Overcast,240,2011-11-10 01:35:00
8:53 PM,42.1,33.1,70,29.76,10.0,WSW,24.2,31.1,N/A,,Overcast,250,2011-11-10 01:53:00
9:53 PM,41.0,35.1,79,29.80,10.0,WSW,20.7,27.6,N/A,,Overcast,250,2011-11-10 02:53:00
10:53 PM,41.0,33.1,73,29.83,10.0,West,18.4,29.9,N/A,,Overcast,260,2011-11-10 03:53:00
11:44 PM,39.2,33.8,81,29.85,10.0,West,17.3,27.6,N/A,,Overcast,260,2011-11-10 04:44:00
11:53 PM,39.9,33.1,77,29.87,10.0,West,19.6,28.8,N/A,,Mostly Cloudy,270,2011-11-10 04:53:00